Regional Weather Roundup
Issued by NWS

Home | Current Version | Previous Version | Text Only | Print | Product List | Glossary On
Versions: 1 2 3 4 5 6 7 8 9 10 11 12 13 14 15 16 17 18 19 20 21 22 23 24 25 26 27 28 29 30 31 32 33 34 35 36 37 38 39 40 41 42 43 44 45 46 47 48 49 50
000
ASUS45 KBOI 301710
RWRID
WEATHER ROUNDUP FOR IDAHO
NATIONAL WEATHER SERVICE BOISE ID
1100 AM MDT TUE SEP 30 2014

NOTE: "FAIR" INDICATES FEW OR NO CLOUDS BELOW 12000 FEET
WITH NO SIGNIFICANT WEATHER AND/OR OBSTRUCTIONS TO VISIBILITY

IDZ012-014-301800-
SOUTHWEST IDAHO


CITY           SKY/WX    TMP DP  RH WIND       PRES   REMARKS
BOISE          CLOUDY    55  44  66 NW18G25   29.99R
CALDWELL       CLOUDY    55  39  54 NW13      30.03R
MOUNTAIN HOME  MOSUNNY   58  48  70 NW23G32   29.97S
$$

IDZ016-017-301800-
SOUTHCENTRAL IDAHO


CITY           SKY/WX    TMP DP  RH WIND       PRES   REMARKS
BURLEY         CLOUDY    53  48  83 W15G23    29.95R
JEROME         CLOUDY    50  48  93 W13       29.97R
TWIN FALLS     CLOUDY    54  49  83 W14       29.98R
$$

IDZ019>023-301800-
SOUTHEAST IDAHO


CITY           SKY/WX    TMP DP  RH WIND       PRES   REMARKS
IDAHO FALLS    CLOUDY    53  48  83 S17       29.92S
POCATELLO      CLOUDY    54  48  80 SW12      29.95S
REXBURG        CLOUDY    50  46  86 SW9       29.92S
$$

IDZ006-010-011-018-031-032-301800-
CENTRAL IDAHO MOUNTAINS


CITY           SKY/WX    TMP DP  RH WIND       PRES   REMARKS
MCCALL         CLOUDY    45  40  82 W8        29.96R
HAILEY         PTSUNNY   48  46  93 SE6       29.95S
STANLEY          N/A     46  41  82 VRB5      29.96S
SALMON         CLOUDY    50  46  87 CALM      29.88F
CHALLIS        PTSUNNY   51  44  77 SE3       29.90S
$$

IDZ002-004-006-007-026-301800-
NORTHERN IDAHO


CITY           SKY/WX    TMP DP  RH WIND       PRES   REMARKS
LEWISTON       MOSUNNY   62  41  46 W17       29.95S
LOWELL           N/A     54  52  93 CALM      29.98R
COEUR D`ALENE  CLOUDY    48  45  87 S9        29.91R
MULLAN PASS    FOG       35  35 100 W8G20     29.90R VSB<1/4 WCI  29
$$



USA.gov is the U.S. government's official web portal to all federal, state and local government web resources and services.